星链-11129 [DTC] (STARLINK-11129 [DTC] )

导读 | 豆包AI

STARLINK-11129是美国太空探索技术公司(SpaceX)旗下星链(Starlink)星座的一颗卫星,于北京时间2024年6月8日发射入轨,属于星链互联网卫星星座组网的组成部分,旨在为全球范围提供低延迟、高速率的卫星宽带互联网服务,进一步扩展星链星座的全球覆盖能力与服务容量。

基本信息
目录编号:
60038
目录名称:
STARLINK-11129
国际标识:
2024-112A
轨道中心:
EARTH
卫星名称:
星链-11129 [DTC]
卫星全名:
星链-11129 [DTC] (STARLINK-11129 [DTC] )
卫星状态:
在轨 (已飞行716 天)
发射日期:
2024-06-08 UTC
国别 :
美国 (US)
星等 :
--
轨道信息
数据来源 国际轨道数据 AOE轨道数据
星历时间 2026-05-24T03:13:37+0800
1天前
查看轨道信息
2026-05-23T05:00:00+0800
2天前
查看轨道信息
半长轴 6737.846km 6737.855km
偏心率 0.0001247 0.0001386
轨道倾角 53.160° 53.156°
近地点辐角 62.222° 51.932°
升交点赤经 256.325° 260.896°
平近点角 297.892° 111.675°
近地点 358.868km 358.784km
远地点 360.55km 360.652km
周期 91.736分钟 91.737分钟
每日圈数 15.697164 15.697132
详细信息
固有亮度:
5
最大亮度:
0.3
卫星平台:
Starlink v2.0 mini
覆盖范围:
全球
运营商:
太空探索技术公司
运营商所在国:
美国
制造商(研发单位):
太空探索技术公司
制造商所在国:
美国
使用方式:
暂无
卫星简介
星链(Starlink)计划是由太空探索技术公司(SpaceX)提出的一个巨型低轨卫星互联网星座项目,计划在2019年至2024年间在太空搭建由约1.2万颗卫星组成的“星链”网络,其中1584颗将部署在地球上空550千米处的近地轨道,并从2020年开始工作。该卫星仍在工作。
2D轨道图
3D轨道图
轨道高度分析图
轨道倾角分析图
轨道综合分析图
查看轨道综合分析图